timestamp,wind_dir_avg,wind_spd_avg,wind_spd_max_dir,wind_spd_gust,battery_voltage,lat,long
2024-04-30 00:04:00+00:00,52.0,6.36,51.0,6.71,12.25,47.59359,-54.27349
2024-04-30 00:14:00+00:00,56.0,6.04,55.0,6.48,12.17,47.59359,-54.27349
2024-04-30 00:24:00+00:00,56.0,6.06,53.0,6.66,12.17,47.59359,-54.27349
2024-04-30 00:34:00+00:00,315.0,0.01,40.0,0.0,12.17,47.59359,-54.27349
2024-04-30 00:44:00+00:00,44.0,5.96,44.0,5.98,12.17,47.59359,-54.27349
2024-04-30 00:54:00+00:00,315.0,0.01,40.0,0.0,12.17,47.59359,-54.27349
2024-04-30 01:04:00+00:00,38.0,7.64,39.0,7.65,12.17,47.59359,-54.27349
2024-04-30 01:14:00+00:00,36.0,6.96,39.0,7.28,12.17,47.59359,-54.27349
2024-04-30 01:24:00+00:00,315.0,0.01,41.0,0.0,12.17,47.59359,-54.27349
2024-04-30 01:34:00+00:00,315.0,0.01,34.0,0.0,12.17,47.59359,-54.27349
2024-04-30 01:44:00+00:00,315.0,0.01,35.0,0.0,12.17,47.59359,-54.27349
2024-04-30 01:54:00+00:00,315.0,0.01,35.0,0.0,12.17,47.59359,-54.27349
2024-04-30 02:04:00+00:00,315.0,0.01,27.0,0.0,12.17,47.59359,-54.27349
2024-04-30 02:14:00+00:00,315.0,0.01,31.0,0.0,12.17,47.59359,-54.27349
2024-04-30 02:24:00+00:00,35.0,8.72,35.0,8.73,12.17,47.59359,-54.27349
2024-04-30 02:34:00+00:00,27.0,8.42,27.0,8.43,12.17,47.59359,-54.27349
2024-04-30 02:44:00+00:00,315.0,0.01,29.0,0.0,12.17,47.59359,-54.27349
2024-04-30 02:54:00+00:00,33.0,7.42,35.0,7.67,12.17,47.59359,-54.27349
2024-04-30 03:04:00+00:00,315.0,0.01,35.0,0.0,12.17,47.59359,-54.27349
2024-04-30 03:14:01+00:00,315.0,0.01,35.0,0.0,12.09,47.59359,-54.27349
2024-04-30 03:24:01+00:00,315.0,0.01,35.0,0.0,12.09,47.59359,-54.27349
2024-04-30 03:34:01+00:00,315.0,0.01,35.0,0.0,12.09,47.59359,-54.27349
2024-04-30 03:44:01+00:00,315.0,0.01,35.0,0.0,12.09,47.59359,-54.27349
2024-04-30 03:54:01+00:00,315.0,0.01,35.0,0.0,12.09,47.59359,-54.27349
2024-04-30 04:04:01+00:00,33.0,7.66,33.0,7.67,12.09,47.59359,-54.27349
2024-04-30 04:14:00+00:00,315.0,0.01,33.0,0.0,12.09,47.59359,-54.27349
2024-04-30 04:24:00+00:00,315.0,0.01,33.0,0.0,12.09,47.59359,-54.27349
2024-04-30 04:34:00+00:00,315.0,0.01,33.0,0.0,12.09,47.59359,-54.27349
2024-04-30 04:44:00+00:00,315.0,0.01,33.0,0.0,12.09,47.59359,-54.27349
2024-04-30 04:54:00+00:00,32.0,7.24,32.0,7.25,12.09,47.59359,-54.27349
2024-04-30 05:04:00+00:00,315.0,0.01,31.0,0.0,12.09,47.59359,-54.27349
2024-04-30 05:14:00+00:00,315.0,0.01,31.0,0.0,12.09,47.59359,-54.27349
2024-04-30 05:24:00+00:00,315.0,0.01,31.0,0.0,12.09,47.59359,-54.27349
2024-04-30 05:34:00+00:00,315.0,0.01,31.0,0.0,12.09,47.59359,-54.27349
2024-04-30 05:44:00+00:00,315.0,0.01,31.0,0.0,12.09,47.59359,-54.27349
2024-04-30 05:54:00+00:00,315.0,0.01,31.0,0.0,12.09,47.59359,-54.27349
2024-04-30 06:04:00+00:00,315.0,0.01,31.0,0.0,12.09,47.59359,-54.27349
2024-04-30 06:14:00+00:00,315.0,0.01,31.0,0.0,12.09,47.59359,-54.27349
2024-04-30 06:24:00+00:00,315.0,0.01,31.0,0.0,12.09,47.59359,-54.27349
2024-04-30 06:34:00+00:00,315.0,0.01,31.0,0.0,12.09,47.59359,-54.27349
2024-04-30 06:44:00+00:00,315.0,0.01,31.0,0.0,12.09,47.59359,-54.27349
2024-04-30 06:54:00+00:00,315.0,0.01,31.0,0.0,12.09,47.59359,-54.27349
2024-04-30 07:04:00+00:00,315.0,0.01,31.0,0.0,12.09,47.59359,-54.27349
2024-04-30 07:14:01+00:00,315.0,0.01,31.0,0.0,12.01,47.59359,-54.27349
2024-04-30 07:24:01+00:00,315.0,0.01,31.0,0.0,12.01,47.59359,-54.27349
2024-04-30 07:34:01+00:00,315.0,0.01,31.0,0.0,12.01,47.59359,-54.27349
2024-04-30 07:44:01+00:00,315.0,0.01,31.0,0.0,12.01,47.59359,-54.27349
2024-04-30 07:54:01+00:00,315.0,0.01,31.0,0.0,12.01,47.59359,-54.27349
2024-04-30 08:04:01+00:00,315.0,0.01,31.0,0.0,12.01,47.59359,-54.27349
2024-04-30 08:14:00+00:00,315.0,0.01,31.0,0.0,11.93,47.59359,-54.27349
2024-04-30 08:24:00+00:00,315.0,0.01,31.0,0.0,11.93,47.59359,-54.27349
2024-04-30 08:34:00+00:00,315.0,0.01,31.0,0.0,11.93,47.59359,-54.27349
2024-04-30 08:44:00+00:00,315.0,0.01,31.0,0.0,11.93,47.59359,-54.27349
2024-04-30 08:54:00+00:00,315.0,0.01,31.0,0.0,11.93,47.59359,-54.27349
2024-04-30 09:04:00+00:00,315.0,0.01,35.0,0.0,11.93,47.59359,-54.27349
2024-04-30 09:14:00+00:00,315.0,0.01,34.0,0.0,11.86,47.59359,-54.27349
2024-04-30 09:24:00+00:00,315.0,0.01,31.0,0.0,11.86,47.59359,-54.27349
2024-04-30 09:34:00+00:00,315.0,0.01,32.0,0.0,11.86,47.59359,-54.27349
2024-04-30 09:44:00+00:00,315.0,0.01,32.0,0.0,11.86,47.59359,-54.27349
2024-04-30 09:54:00+00:00,315.0,0.01,32.0,0.0,11.86,47.59359,-54.27349
2024-04-30 10:04:00+00:00,315.0,0.01,32.0,0.0,11.86,47.59359,-54.27349
2024-04-30 10:14:00+00:00,315.0,0.01,32.0,0.0,12.01,47.59359,-54.27349
2024-04-30 10:24:00+00:00,315.0,0.01,32.0,0.0,12.01,47.59359,-54.27349
2024-04-30 10:34:00+00:00,315.0,0.01,32.0,0.0,12.01,47.59359,-54.27349
2024-04-30 10:44:00+00:00,315.0,0.01,32.0,0.0,12.01,47.59359,-54.27349
2024-04-30 10:54:00+00:00,315.0,0.01,32.0,0.0,12.01,47.59359,-54.27349
2024-04-30 11:04:00+00:00,315.0,0.01,32.0,0.0,12.01,47.59359,-54.27349
2024-04-30 11:14:00+00:00,315.0,0.01,32.0,0.0,12.81,47.59359,-54.27349
2024-04-30 11:24:00+00:00,315.0,0.01,32.0,0.0,12.81,47.59359,-54.27349
2024-04-30 11:34:00+00:00,315.0,0.01,32.0,0.0,12.81,47.59359,-54.27349
2024-04-30 11:44:00+00:00,315.0,0.01,32.0,0.0,12.81,47.59359,-54.27349
2024-04-30 11:54:00+00:00,315.0,0.01,32.0,0.0,12.81,47.59359,-54.27349
2024-04-30 12:04:00+00:00,315.0,0.01,32.0,0.0,12.81,47.59359,-54.27349
2024-04-30 12:14:01+00:00,315.0,0.01,32.0,0.0,13.21,47.59359,-54.27349
2024-04-30 12:24:01+00:00,315.0,0.01,32.0,0.0,13.21,47.59359,-54.27349
2024-04-30 12:34:01+00:00,315.0,0.01,32.0,0.0,13.21,47.59359,-54.27349
2024-04-30 12:44:01+00:00,315.0,0.01,32.0,0.0,13.21,47.59359,-54.27349
2024-04-30 12:54:01+00:00,315.0,0.01,32.0,0.0,13.21,47.59359,-54.27349
2024-04-30 13:04:01+00:00,315.0,0.01,32.0,0.0,13.21,47.59359,-54.27349
2024-04-30 13:14:00+00:00,315.0,0.01,32.0,0.0,13.53,47.59359,-54.27349
2024-04-30 13:24:00+00:00,315.0,0.01,32.0,0.0,13.53,47.59359,-54.27349
2024-04-30 13:34:00+00:00,315.0,0.01,32.0,0.0,13.53,47.59359,-54.27349
2024-04-30 13:44:00+00:00,315.0,0.01,32.0,0.0,13.53,47.59359,-54.27349
2024-04-30 13:54:00+00:00,315.0,0.01,32.0,0.0,13.53,47.59359,-54.27349
2024-04-30 14:04:00+00:00,315.0,0.01,32.0,0.0,13.53,47.59359,-54.27349
2024-04-30 14:14:00+00:00,315.0,0.01,32.0,0.0,13.44,47.59359,-54.27349
2024-04-30 14:24:00+00:00,315.0,0.01,32.0,0.0,13.44,47.59359,-54.27349
2024-04-30 14:34:00+00:00,315.0,0.01,32.0,0.0,13.44,47.59359,-54.27349
2024-04-30 14:44:00+00:00,315.0,0.01,32.0,0.0,13.44,47.59359,-54.27349
2024-04-30 14:54:00+00:00,315.0,0.01,32.0,0.0,13.44,47.59359,-54.27349
2024-04-30 15:04:00+00:00,315.0,0.01,32.0,0.0,13.44,47.59359,-54.27349
2024-04-30 15:14:01+00:00,315.0,0.01,32.0,0.0,13.53,47.59359,-54.27349
2024-04-30 15:24:01+00:00,315.0,0.01,32.0,0.0,13.53,47.59359,-54.27349
2024-04-30 15:34:01+00:00,315.0,0.01,32.0,0.0,13.53,47.59359,-54.27349
2024-04-30 15:44:01+00:00,315.0,0.01,32.0,0.0,13.53,47.59359,-54.27349
2024-04-30 15:54:01+00:00,315.0,0.01,32.0,0.0,13.53,47.59359,-54.27349
2024-04-30 16:04:01+00:00,315.0,0.01,32.0,0.0,13.53,47.59359,-54.27349
2024-04-30 16:14:00+00:00,315.0,0.01,32.0,0.0,13.21,47.59359,-54.27349
2024-04-30 16:24:00+00:00,315.0,0.01,32.0,0.0,13.21,47.59359,-54.27349
2024-04-30 16:34:00+00:00,315.0,0.01,32.0,0.0,13.21,47.59359,-54.27349
2024-04-30 16:44:00+00:00,315.0,0.01,32.0,0.0,13.21,47.59359,-54.27349
2024-04-30 16:54:00+00:00,315.0,0.01,32.0,0.0,13.21,47.59359,-54.27349
2024-04-30 17:04:00+00:00,315.0,0.01,32.0,0.0,13.21,47.59359,-54.27349
2024-04-30 17:14:00+00:00,315.0,0.01,32.0,0.0,13.44,47.59359,-54.27349
2024-04-30 17:24:00+00:00,315.0,0.01,32.0,0.0,13.44,47.59359,-54.27349
2024-04-30 17:34:00+00:00,315.0,0.01,32.0,0.0,13.44,47.59359,-54.27349
2024-04-30 17:44:00+00:00,315.0,0.01,32.0,0.0,13.44,47.59359,-54.27349
2024-04-30 17:54:00+00:00,315.0,0.01,32.0,0.0,13.44,47.59359,-54.27349
2024-04-30 18:04:00+00:00,315.0,0.01,32.0,0.0,13.44,47.59359,-54.27349
2024-04-30 18:14:00+00:00,315.0,0.01,32.0,0.0,13.44,47.59359,-54.27349
2024-04-30 18:24:00+00:00,315.0,0.01,32.0,0.0,13.44,47.59359,-54.27349
2024-04-30 18:34:00+00:00,315.0,0.01,32.0,0.0,13.44,47.59359,-54.27349
2024-04-30 18:44:00+00:00,315.0,0.01,32.0,0.0,13.44,47.59359,-54.27349
2024-04-30 18:54:00+00:00,315.0,0.01,32.0,0.0,13.44,47.59359,-54.27349
2024-04-30 19:04:00+00:00,315.0,0.01,32.0,0.0,13.44,47.59359,-54.27349
2024-04-30 19:14:00+00:00,315.0,0.01,32.0,0.0,13.44,47.59359,-54.27349
2024-04-30 19:24:00+00:00,315.0,0.01,32.0,0.0,13.44,47.59359,-54.27349
2024-04-30 19:34:00+00:00,315.0,0.01,32.0,0.0,13.44,47.59359,-54.27349
2024-04-30 19:44:00+00:00,315.0,0.01,32.0,0.0,13.44,47.59359,-54.27349
2024-04-30 19:54:00+00:00,315.0,0.01,32.0,0.0,13.44,47.59359,-54.27349
2024-04-30 20:04:00+00:00,315.0,0.01,32.0,0.0,13.44,47.59359,-54.27349
2024-04-30 20:14:00+00:00,315.0,0.01,32.0,0.0,13.29,47.59359,-54.27349
2024-04-30 20:24:00+00:00,315.0,0.01,32.0,0.0,13.29,47.59359,-54.27349
2024-04-30 20:34:00+00:00,315.0,0.01,32.0,0.0,13.29,47.59359,-54.27349
2024-04-30 20:44:00+00:00,315.0,0.01,32.0,0.0,13.29,47.59359,-54.27349
2024-04-30 20:54:00+00:00,315.0,0.01,32.0,0.0,13.29,47.59359,-54.27349
2024-04-30 21:04:00+00:00,315.0,0.01,32.0,0.0,13.29,47.59359,-54.27349
2024-04-30 21:14:01+00:00,315.0,0.01,32.0,0.0,13.13,47.59359,-54.27349
2024-04-30 21:24:01+00:00,315.0,0.01,32.0,0.0,13.13,47.59359,-54.27349
2024-04-30 21:34:01+00:00,315.0,0.01,32.0,0.0,13.13,47.59359,-54.27349
2024-04-30 21:44:01+00:00,315.0,0.01,32.0,0.0,13.13,47.59359,-54.27349
2024-04-30 21:54:01+00:00,315.0,0.01,32.0,0.0,13.13,47.59359,-54.27349
2024-04-30 22:04:01+00:00,315.0,0.01,32.0,0.0,13.13,47.59359,-54.27349
2024-04-30 22:14:00+00:00,315.0,0.01,32.0,0.0,12.57,47.59359,-54.27349
2024-04-30 22:24:00+00:00,315.0,0.01,32.0,0.0,12.57,47.59359,-54.27349
2024-04-30 22:34:00+00:00,315.0,0.01,32.0,0.0,12.57,47.59359,-54.27349
2024-04-30 22:44:00+00:00,315.0,0.01,32.0,0.0,12.57,47.59359,-54.27349
2024-04-30 22:54:00+00:00,315.0,0.01,52.0,0.0,12.57,47.59359,-54.27349
2024-04-30 23:04:00+00:00,315.0,0.01,52.0,0.0,12.57,47.59359,-54.27349
2024-04-30 23:14:00+00:00,315.0,0.01,52.0,0.0,12.17,47.59359,-54.27349
2024-04-30 23:24:00+00:00,315.0,0.01,52.0,0.0,12.17,47.59359,-54.27349
2024-04-30 23:34:00+00:00,315.0,0.01,52.0,0.0,12.17,47.59359,-54.27349
2024-04-30 23:44:00+00:00,315.0,0.01,52.0,0.0,12.17,47.59359,-54.27349
2024-04-30 23:54:00+00:00,315.0,0.01,52.0,0.0,12.17,47.59359,-54.27349
